Cortez, CO

1:24 AM MST on February 14, 2016 (GMT -0700)
Cortez Municipal

Weather History for KCEZ - March, 2013

Change the Weather History Date:

Tuesday, March 5, 2013

  Actual Average Record
Temperature  
Mean Temperature 38 °F 36 °F  
Max Temperature 55 °F 51 °F 62 °F (2006)
Min Temperature 20 °F 22 °F 7 °F (2002)
Degree Days  
Heating Degree Days 27 29  
Month to date heating degree days 126 146  
Since 1 July heating degree days 4992 4876  
Cooling Degree Days 0 0  
Month to date cooling degree days 0 0  
Year to date cooling degree days 0 0  
Moisture  
Dew Point 16 °F    
Average Humidity 52    
Maximum Humidity 88    
Minimum Humidity 15    
Precipitation  
Precipitation 0.00 in 0.04 in 0.11 in (2003)
Month to date precipitation 0.05 0.24  
Year to date precipitation 2.26 2.13  
Sea Level Pressure  
Sea Level Pressure 30.20 in    
Wind  
Wind Speed 4 mph (ESE)    
Max Wind Speed 12 mph    
Max Gust Speed 15 mph    
Visibility 10 miles    
Events      
T = Trace of Precipitation, MM = Missing Value Source: NWS Daily Summary

Daily Weather History Graph

Daily Weather History Graph

Search for Another Location

Airport or City:

Trip Planner

Search our weather history database for the weather conditions in past years. The results will help you decide how hot, cold, wet, or windy it might be!

Date:

Astronomy

Mar. 05, 2013 Rise Set
Actual Time 6:39 AM MST 6:12 PM MST
Civil Twilight 6:13 AM MST 6:38 PM MST
Nautical Twilight 5:43 AM MST 7:09 PM MST
Astronomical Twilight 5:13 AM MST 7:39 PM MST
Moon 1:49 AM MST (3/5) 12:00 PM MST (3/5)
Length of Visible Light 12h 25m
Length of Day
11h 33m
Last Quarter, 40% of the Moon is Illuminated
Mar 5
Last Quarter
Mar 11
New
Mar 19
First Quarter
Mar 27
Full
Apr 2
Last Quarter

Hourly Weather History & Observations

Time (MST) Temp. Windchill Dew Point Humidity Pressure Visibility Wind Dir Wind Speed Gust Speed Precip Events Conditions
12:53 AM 25.0 °F - 19.9 °F 81% 30.15 in 10.0 mi Calm Calm - N/A   Clear
1:53 AM 23.0 °F - 19.0 °F 85% 30.19 in 10.0 mi Calm Calm - N/A   Clear
2:53 AM 21.9 °F 15.7 °F 18.0 °F 85% 30.19 in 10.0 mi NE 4.6 mph - N/A   Clear
3:53 AM 21.9 °F 17.2 °F 17.1 °F 82% 30.22 in 10.0 mi East 3.5 mph - N/A   Clear
4:53 AM 21.0 °F 13.4 °F 17.1 °F 85% 30.24 in 10.0 mi ENE 5.8 mph - N/A   Clear
5:53 AM 21.0 °F 13.4 °F 16.0 °F 81% 30.27 in 10.0 mi ENE 5.8 mph - N/A   Clear
6:53 AM 21.0 °F 16.2 °F 15.1 °F 78% 30.30 in 10.0 mi ENE 3.5 mph - N/A   Clear
7:53 AM 27.0 °F - 17.1 °F 66% 30.30 in 10.0 mi Calm Calm - N/A   Clear
8:53 AM 32.0 °F - 12.9 °F 45% 30.30 in 10.0 mi Calm Calm - N/A   Clear
9:53 AM 37.9 °F - 10.0 °F 32% 30.29 in 10.0 mi Calm Calm - N/A   Clear
10:53 AM 46.9 °F - 15.1 °F 28% 30.25 in 10.0 mi South 5.8 mph - N/A   Clear
11:53 AM 48.9 °F - 14.0 °F 25% 30.24 in 10.0 mi SSW 8.1 mph - N/A   Clear
12:53 PM 51.1 °F - 12.0 °F 21% 30.21 in 10.0 mi SSW 8.1 mph - N/A   Clear
1:53 PM 52.0 °F - 9.0 °F 18% 30.18 in 10.0 mi Variable 4.6 mph - N/A   Clear
2:53 PM 54.0 °F - 6.1 °F 15% 30.15 in 10.0 mi Variable 3.5 mph - N/A   Clear
3:53 PM 55.0 °F - 10.0 °F 17% 30.13 in 10.0 mi SSW 6.9 mph - N/A   Clear
4:53 PM 54.0 °F - 10.0 °F 17% 30.12 in 10.0 mi SW 4.6 mph - N/A   Clear
5:53 PM 48.0 °F - 18.0 °F 30% 30.14 in 10.0 mi SSW 3.5 mph - N/A   Clear
6:53 PM 42.1 °F - 18.0 °F 38% 30.18 in 10.0 mi Calm Calm - N/A   Clear
7:53 PM 35.1 °F 29.3 °F 23.0 °F 61% 30.18 in 10.0 mi ENE 6.9 mph - N/A   Clear
8:53 PM 34.0 °F 31.0 °F 21.9 °F 61% 30.17 in 10.0 mi ENE 3.5 mph - N/A   Clear
9:53 PM 33.1 °F - 21.0 °F 61% 30.16 in 10.0 mi Calm Calm - N/A   Clear
10:53 PM 30.0 °F 25.2 °F 19.9 °F 66% 30.13 in 10.0 mi NE 4.6 mph - N/A   Clear
11:53 PM 28.9 °F - 21.0 °F 72% 30.12 in 10.0 mi Calm Calm - N/A   Clear